Location: Bordessoule
(46.1702°N, 1.9553°E)
Time: 17:46:20
(UTC+00:00)

Daily predictions for brighter satellites

Satellite Brightness Start Highest point End
(mag) Time Altitude Azimuth Time Altitude Azimuth Time Altitude Azimuth
MOS 1 4.4 19:41:47 10° SSE 19:47:23 67° ENE 19:53:00 10° N
Cosmos 2333 Rocket 3.6 19:46:30 10° N 19:51:08 25° NE 19:55:44 10° ESE
BREEZE-M DEB (TANK) 2.2 19:49:08 10° WNW 19:51:46 73° SSW 19:57:46 10° ESE
Cosmos 2322 Rocket 2.3 19:47:58 10° NNW 19:53:37 71° ENE 19:59:13 10° SSE
CZ-4 R/B 4.5 19:53:44 10° WSW 19:55:50 13° W 19:57:58 10° WNW
IRS-1A Rocket 4.3 19:51:02 10° SSE 19:56:31 76° ENE 20:02:03 10° NNW
BREEZE-M R/B 4.5 19:54:40 10° SSW 19:58:54 18° SSE 20:01:36 10° ESE
Cosmos 923 Rocket 4.0 19:54:18 10° SSW 19:59:38 81° ESE 20:05:00 10° NNE
OBJECT-B 2.3 19:56:58 10° SSW 19:59:58 37° W 20:03:00 10° NNW
BREEZE-M DEB (TANK) 3.5 20:01:11 10° WNW 20:04:15 68° SSW 20:12:58 10° ESE
Cosmos 2219 Rocket 3.5 20:00:43 10° N 20:05:20 26° NE 20:09:57 10° ESE
SJ-6B 3.9 20:03:04 10° S 20:06:37 43° W 20:10:15 10° NNW
Resurs 1-3 3.7 20:02:39 10° SSE 20:07:02 84° WSW 20:11:28 10° NNW
Cosmos 2056 Rocket 3.7 20:05:14 10° NNW 20:10:31 58° ENE 20:15:29 11° SE
ATLAS 5 CENTAUR R/B 3.5 20:06:35 10° NNW 20:11:14 30° NE 20:16:36 10° E
USA 186 4.3 20:12:12 10° SW 20:14:00 16° W 20:15:44 10° NW
SPOT 1/Viking Rocket 4.0 20:14:27 11° SE 20:19:16 48° ENE 20:24:17 10° N
USA 245 4.3 20:16:53 13° SE 20:20:02 31° ENE 20:23:10 10° N
Cosmos 1092 Rocket 4.1 20:14:53 10° S 20:21:11 89° W 20:27:35 10° N
NOSS 2-1 (E) 2.7 20:18:17 10° SW 20:21:35 81° SE 20:24:58 10° NE
Cosmos 2026 Rocket 4.0 20:18:33 10° S 20:24:51 81° E 20:31:05 10° N
CZ-2C R/B 4.3 20:22:32 10° NNE 20:26:40 35° E 20:30:27 12° SSE
SL-16 R/B 3.0 20:21:36 10° NW 20:27:05 51° WSW 20:32:32 10° S
IGS 5A 3.5 20:23:34 10° SSE 20:27:42 86° WSW 20:31:53 10° NNW
GP-B 3.2 20:25:07 10° N 20:29:30 56° E 20:33:40 11° SSE
Cosmos 1151 Rocket 3.0 20:27:32 10° N 20:31:57 83° E 20:36:06 11° S
CARTOSAT-1 4.4 20:29:08 16° SE 20:31:59 35° ENE 20:35:56 10° N
Cosmos 1680 Rocket 3.8 20:26:51 10° SSW 20:32:07 72° WNW 20:37:22 10° NNE
Cosmos 1371 Rocket 4.1 20:27:25 10° NNW 20:32:50 85° WSW 20:37:42 13° SSE
NOSS 3-1 (C) 4.2 20:26:24 10° NW 20:33:48 72° NE 20:40:55 16° SE
Cosmos 2112 Rocket 4.1 20:28:38 10° SSW 20:33:55 80° WNW 20:39:12 10° NNE
Lacrosse 5 3.2 20:33:37 17° SE 20:34:03 17° ESE 20:37:18 10° E
Cosmos 1271 Rocket 4.0 20:32:08 10° NNW 20:35:55 41° W 20:39:42 10° SSW
Okean 3 Rocket 3.6 20:32:08 10° S 20:36:36 76° E 20:41:10 10° NNE
Cosmos 2333 4.5 20:32:18 10° NNW 20:37:49 56° ENE 20:41:51 19° SE
MetOp-B 4.1 20:36:35 13° SSE 20:41:28 83° ENE 20:46:51 10° NNW
ERS-2 2.6 20:38:06 10° N 20:41:43 62° WNW 20:45:17 10° SSW
Meteor 1-10 Rocket 4.4 20:37:28 10° N 20:42:54 53° ENE 20:46:47 19° SE
COSMOS 2487 3.3 20:45:40 26° SE 20:46:20 28° ESE 20:49:18 10° NE
Cosmos 1515 Rocket 3.8 20:44:54 10° N 20:49:14 53° ENE 20:51:44 23° SSE
COSMOS 2428 3.4 20:44:55 10° NNW 20:50:20 42° NE 20:53:52 20° ESE
GEOS 3 Rocket 4.2 20:45:21 10° NNE 20:50:29 59° NW 20:55:31 10° WSW
USA 229 DEB 4.2 20:44:45 10° NW 20:51:57 60° NE 20:57:36 19° ESE
USA 229 4.2 20:44:51 10° NW 20:52:03 60° NE 20:57:42 19° ESE
COSMOS 2455 2.9 20:46:28 10° SSW 20:52:18 56° ESE 20:58:10 10° NE
Terra 2.8 20:54:30 21° ESE 20:56:49 33° ENE 21:01:03 10° N
Cosmos 292 Rocket 3.7 20:52:07 10° NNW 20:56:57 89° SW 20:59:58 23° SSE
Ariane Rocket 4.4 20:53:02 10° SSW 20:57:37 34° W 21:02:14 10° NNW
Cosmos 1809 Rocket 4.5 20:52:00 10° S 20:58:10 84° W 21:04:19 10° N
Cosmos 1328 Rocket 3.8 20:53:51 10° NNW 20:58:17 69° W 21:01:43 16° S
Cosmos 2360 Rocket 2.6 20:54:50 10° NNW 21:00:24 61° WSW 21:04:36 18° S
Cosmos 1766 Rocket 4.3 20:58:57 10° SSW 21:03:14 53° WNW 21:07:31 10° N
SPOT 3 Rocket 4.1 20:59:52 12° S 21:04:38 55° W 21:09:46 10° NNW
Cosmos 972 Rocket 4.3 21:01:59 21° SSE 21:05:00 44° ESE 21:09:41 10° NNE
Cosmos 1174 3.9 21:03:04 10° NW 21:05:56 43° WSW 21:06:57 30° S
Resurs 01 Rocket 3.1 21:05:39 10° SSW 21:09:41 34° W 21:13:46 10° NNW
Meteor 2-6 Rocket 4.4 21:07:09 10° NNW 21:12:30 68° W 21:16:31 18° S
NOSS 3-1 (A) 4.1 21:05:11 10° NW 21:12:38 76° NE 21:18:16 24° SE
Cosmos 2266 Rocket 4.0 21:09:42 21° SSE 21:13:54 61° E 21:20:06 10° NNE
Cosmos 1420 Rocket 4.4 21:10:34 10° NNW 21:15:49 61° WSW 21:19:08 22° S
Cosmos 1812 3.7 21:12:55 10° NNW 21:16:36 43° W 21:19:06 18° SSW
Cosmos 1553 Rocket 4.3 21:11:33 10° NNW 21:17:35 65° W 21:22:39 15° S
Cosmos 1862 3.9 21:16:09 12° SSW 21:19:46 54° WNW 21:23:40 10° N
Gblst 52 Del rocket 4.4 21:15:01 10° WNW 21:21:00 87° SSW 21:24:54 27° ESE
Meteor 2-21 Rocket 4.5 21:16:32 11° S 21:22:28 85° W 21:28:40 10° N
ERS-1 Rocket 2.9 21:20:14 31° SSE 21:22:41 79° ENE 21:27:43 10° NNW
Cosmos 2228 Rocket 3.4 21:21:17 10° N 21:25:39 52° ENE 21:26:53 39° SE
Cosmos 2285 Rocket 4.0 21:23:38 10° NNW 21:29:58 77° ENE 21:33:03 32° SSE
Cosmos 2297 Rocket 3.5 21:31:26 21° E 21:31:26 21° E 21:35:19 10° NE
Cosmos 1805 Rocket 3.9 21:31:35 42° SE 21:32:23 48° E 21:36:39 10° NNE
SPOT 5 2.6 21:31:58 38° S 21:33:37 82° WSW 21:38:09 10° NNW
ARIANE 5 R/B 2.8 21:31:52 33° S 21:33:47 67° WSW 21:38:11 10° NNW
BREEZE-M DEB (TANK) 2.3 21:27:52 10° WNW 21:33:53 76° NNE 21:34:36 49° E
Cosmos 2315 Rocket 4.1 21:28:21 10° N 21:34:41 66° E 21:37:37 33° SSE
NOSS 0 Rocket 4.3 21:28:55 10° NNW 21:35:03 56° ENE 21:37:53 31° ESE
Cosmos 2333 Rocket 2.4 21:30:17 10° NNW 21:35:53 65° WSW 21:38:33 31° S
Cosmos 883 Rocket 4.5 21:29:52 10° N 21:36:10 79° E 21:39:17 32° SSE
Cosmos 2322 Rocket 4.3 21:33:16 10° WNW 21:37:02 19° W 21:40:46 10° SW
Cosmos 2237 Rocket 3.1 21:32:51 10° NNW 21:38:10 38° NE 21:40:34 26° E
Cosmos 2322 3.9 21:33:11 10° NNW 21:38:52 65° WSW 21:41:30 32° S
Meteor 1-20 Rocket 4.5 21:40:22 38° SE 21:42:06 51° E 21:47:39 10° NNE
Cosmos 1500 Rocket 3.6 21:40:12 31° SSW 21:42:14 76° W 21:46:43 10° N
Cosmos 1452 Rocket 3.6 21:37:09 10° NNW 21:42:24 70° WSW 21:44:29 37° S
Cosmos 2227 Rocket 3.7 21:44:49 20° E 21:44:49 20° E 21:48:12 10° NE
Cosmos 2219 Rocket 2.4 21:44:12 10° NNW 21:49:43 61° WSW 21:51:54 36° S
Sich 1 3.0 21:53:28 59° ESE 21:53:50 62° E 21:58:07 10° NNE
ATLAS 5 CENTAUR R/B 2.4 21:50:43 10° NW 21:56:20 74° SW 21:58:38 41° SSE
Cosmos 1515 3.9 21:53:51 10° N 21:57:27 56° ENE 21:57:27 56° ENE
Cosmos 1331 Rocket 3.9 21:53:02 10° NNW 21:58:17 78° ENE 21:59:36 51° SE
Meteor 1-27 Rocket 4.1 21:53:09 10° NNW 21:58:47 61° W 22:01:24 32° SSW
Cosmos 1110 Rocket 3.9 21:54:23 10° NNW 21:59:44 88° ENE 22:01:08 51° SSE
Cosmos 1743 Rocket 4.5 22:02:47 25° SW 22:04:57 45° WNW 22:09:13 10° N
Cosmos 1633 Rocket 3.6 22:10:51 43° ENE 22:10:51 43° ENE 22:14:36 10° NNE
SL-16 R/B 3.7 22:05:43 10° N 22:10:29 27° NE 22:12:55 20° E
Cosmos 494 Rocket 4.1 22:11:18 32° SW 22:13:40 72° WNW 22:18:49 10° NNE
Lacrosse 5 1.7 22:12:22 16° SW 22:16:22 86° SE 22:21:29 10° NE
Cosmos 1666 Rocket 3.5 22:21:09 70° E 22:21:09 70° E 22:25:33 10° NNE
APEX 4.5 22:17:43 27° SW 22:21:12 80° WNW 22:28:02 10° NNE
Cosmos 1602 3.8 22:22:55 71° NNW 22:22:55 71° NNW 22:26:29 10° N
SL-08 ROCKET BODY 4.5 22:21:32 50° SE 22:22:55 64° E 22:29:02 10° NNE
Nadezhda 2 Rocket 4.5 22:23:47 45° S 22:25:56 86° E 22:32:24 10° N
Cosmos 1244 Rocket 4.4 22:30:48 49° S 22:32:38 89° E 22:38:53 10° N
COSMOS 2428 3.8 22:29:25 10° NW 22:34:29 34° WSW 22:35:52 30° SW
Terra 3.1 22:33:24 28° WSW 22:34:32 31° W 22:38:47 10° NNW
Meteor 1-25 Rocket 4.4 22:33:39 41° SW 22:35:31 65° WNW 22:41:04 10° N
CZ-4C R/B 3.8 22:29:05 10° NNW 22:35:41 43° NE 22:41:11 19° E
COBE Rocket 3.6 22:36:50 79° ESE 22:37:01 82° ENE 22:41:48 10° N
COSMOS 2455 4.5 22:33:10 10° WSW 22:38:33 33° NW 22:43:57 10° NNE
Timation 2 Rocket 4.3 22:39:27 42° ESE 22:39:27 42° ESE 22:45:06 10° NE
Cosmos 2084 Rocket 4.3 22:35:31 10° NW 22:38:56 40° W 22:38:56 40° W
Meteor 2-4 Rocket 3.8 22:33:53 10° N 22:39:48 67° ENE 22:40:46 57° SE
CZ-3B R/B 2.1 22:32:05 10° NW 22:39:48 80° WSW 22:39:48 80° WSW
Meteor 2-9 4.5 22:43:19 68° SE 22:43:48 74° E 22:49:18 10° NNE
Cosmos 1862 Rocket 3.6 22:41:19 10° N 22:45:19 76° N 22:45:19 76° N
Meteor 1-18 Rocket 4.2 22:42:33 10° NNW 22:48:21 74° W 22:49:18 60° SSW
USA 267 3.6 22:42:33 10° ENE 22:48:10 42° ESE 22:48:10 42° ESE
Cosmos 2219 3.1 22:48:17 67° SSE 22:48:47 71° ESE 22:54:31 10° NNE
Meteor 1-5 Rocket 4.3 22:49:36 59° SE 22:50:10 63° E 22:56:02 10° NNE
Spot 4 3.7 22:52:09 84° ESE 22:52:14 85° ENE 22:57:07 10° NNW
Okean 1 4.3 22:49:36 10° NNW 22:52:58 42° WNW 22:52:58 42° WNW
Cosmos 1707 Rocket 4.4 22:49:39 10° NNW 22:53:47 41° W 22:53:48 41° W
Cosmos 1302 Rocket 4.0 22:52:06 10° NNW 22:57:17 66° WSW 22:57:32 65° SW
Cosmos 1500 4.1 22:59:15 46° NW 22:59:15 46° NW 23:02:24 10° N
Cosmos 2082 4.3 23:01:12 41° E 23:01:12 41° E 23:06:04 10° NE
Cosmos 1980 4.0 22:55:27 10° NW 23:00:57 52° WSW 23:01:24 51° SW
Cosmos 1703 Rocket 4.3 22:57:37 10° N 23:01:20 44° NE 23:01:20 44° NE
SL-08 R/B 4.5 23:00:49 54° SSW 23:02:16 75° W 23:08:25 10° N
Cosmos 909 Rocket 4.2 23:02:47 57° S 23:04:05 70° ESE 23:11:48 10° NE
Meteor 1-11 Rocket 4.3 23:05:20 41° E 23:05:20 41° E 23:10:23 10° NNE
Okean 1-7 3.7 23:06:04 10° N 23:09:33 48° NE 23:09:33 48° NE
Cosmos 1269 Rocket 4.3 23:10:35 55° WSW 23:11:26 64° WNW 23:16:42 10° NNE
Cosmos 2297 Rocket 2.5 23:13:12 47° WSW 23:14:40 63° WNW 23:20:19 10° NNE
Meteor 2-17 Rocket 4.2 23:15:38 70° SSE 23:16:21 82° E 23:22:26 10° N
Cosmos 2237 Rocket 3.0 23:17:00 10° NW 23:22:13 38° WSW 23:22:23 38° WSW
ALOS 2 2.9 23:23:09 64° NNW 23:23:09 64° NNW 23:26:55 10° NNW
USA 234 3.7 23:18:04 17° E 23:23:02 57° NNE 23:29:26 10° NW
Cosmos 1461 4.2 23:27:19 36° ENE 23:27:19 36° ENE 23:30:04 10° NE
Cosmos 1709 Rocket 3.9 23:26:19 64° SE 23:27:07 73° E 23:33:30 10° NNE
Cosmos 2227 Rocket 2.4 23:26:37 55° WSW 23:27:39 66° WNW 23:33:19 10° NNE
Meteor 1-13 Rocket 4.1 23:22:44 10° N 23:28:30 79° E 23:28:50 76° ESE
Cosmos 2263 Rocket 3.5 23:33:28 28° E 23:33:28 28° E 23:37:36 10° NE
Cosmos 2344 4.4 23:34:40 29° ESE 23:34:47 29° ESE 23:41:03 10° NE
Cosmos 1745 Rocket 4.3 23:35:14 50° SW 23:36:33 60° WNW 23:42:49 10° N
Cosmos 1536 3.9 23:40:44 42° NNE 23:40:44 42° NNE 23:43:32 10° NNE
ATLAS 5 CENTAUR R/B 4.4 23:37:13 10° WNW 23:40:09 15° WSW 23:40:09 15° WSW
Cosmos 1241 Rocket 4.5 23:44:34 61° SW 23:45:50 87° NW 23:52:23 10° NE
Cosmos 1869 Rocket 4.1 23:47:06 56° NNE 23:47:06 56° NNE 23:50:42 10° NNE
Okean 3 4.2 23:42:26 10° N 23:45:46 53° N 23:45:46 53° N
Cosmos 44 3.4 23:46:25 10° NW 23:51:25 78° N 23:51:25 78° N
Thor Agena Rocket 3.8 23:47:58 10° NNE 23:52:34 57° E 23:52:34 57° E
